• Em Portugal
  • Lista de países
  • Para 7 dias
  • Temperatura da água
  • Mapas de satélite
  • Mapa do tempo
  • Widgets de tempo
  • user-avatar
    Iniciar Sessão

    Previsão horária em Kemer

    Hoje, 20 Agosto, Segunda-feira

    Tempo Temperatura Precipitação Vento Pressão Humidade
    00:00 +30°C° 0 mm 1 m/s 743 mmHg 63%
    01:00 +30°C° 0 mm 1 m/s 743 mmHg 63%
    02:00 +30°C° 0 mm 1 m/s 743 mmHg 62%
    03:00 +29°C° 0 mm 1 m/s 742 mmHg 63%
    04:00 +29°C° 0 mm 1 m/s 742 mmHg 63%
    05:00 +29°C° 0 mm 1 m/s 742 mmHg 63%
    06:00 +30°C° 0 mm 1 m/s 743 mmHg 58%
    07:00 +32°C° 0 mm 1 m/s 743 mmHg 53%
    08:00 +33°C° 0 mm 1 m/s 743 mmHg 48%
    09:00 +34°C° 0 mm 1 m/s 743 mmHg 45%
    10:00 +36°C° 0 mm 2 m/s 743 mmHg 41%
    11:00 +37°C° 0 mm 2 m/s 743 mmHg 38%
    12:00 +37°C° 0,2 mm 3 m/s 743 mmHg 40%
    13:00 +36°C° 0,2 mm 3 m/s 743 mmHg 42%
    14:00 +36°C° 0,2 mm 3 m/s 743 mmHg 44%
    15:00 +36°C° 0,7 mm 3 m/s 743 mmHg 47%
    16:00 +35°C° 0,7 mm 3 m/s 743 mmHg 50%
    17:00 +35°C° 0,7 mm 3 m/s 743 mmHg 52%
    18:00 +33°C° 0 mm 3 m/s 743 mmHg 58%
    19:00 +31°C° 0 mm 2 m/s 743 mmHg 64%
    20:00 +30°C° 0 mm 2 m/s 743 mmHg 70%
    21:00 +30°C° 0 mm 2 m/s 744 mmHg 70%
    22:00 +29°C° 0 mm 1 m/s 744 mmHg 71%
    23:00 +29°C° 0 mm 1 m/s 744 mmHg 71%

    Amanhã, 21 Agosto, Terça-feira

    Tempo Temperatura Precipitação Vento Pressão Humidade
    00:00 +29°C° 0 mm 1 m/s 744 mmHg 71%
    01:00 +28°C° 0 mm 1 m/s 744 mmHg 71%
    02:00 +28°C° 0 mm 1 m/s 744 mmHg 72%
    03:00 +28°C° 0 mm 1 m/s 744 mmHg 71%
    04:00 +28°C° 0 mm 1 m/s 744 mmHg 70%
    05:00 +28°C° 0 mm 1 m/s 744 mmHg 69%
    06:00 +29°C° 0 mm 1 m/s 744 mmHg 63%
    07:00 +29°C° 0 mm 0 m/s 744 mmHg 57%
    08:00 +31°C° 0 mm 0 m/s 744 mmHg 51%
    09:00 +34°C° 0 mm 1 m/s 745 mmHg 48%
    10:00 +36°C° 0 mm 2 m/s 745 mmHg 44%
    11:00 +37°C° 0 mm 3 m/s 745 mmHg 41%
    12:00 +37°C° 0 mm 3 m/s 744 mmHg 40%
    13:00 +37°C° 0 mm 4 m/s 744 mmHg 40%
    14:00 +37°C° 0 mm 4 m/s 744 mmHg 40%
    15:00 +37°C° 0 mm 4 m/s 744 mmHg 42%
    16:00 +36°C° 0 mm 4 m/s 744 mmHg 44%
    17:00 +36°C° 0 mm 4 m/s 744 mmHg 46%
    18:00 +34°C° 0 mm 4 m/s 744 mmHg 53%
    19:00 +33°C° 0 mm 3 m/s 744 mmHg 59%
    20:00 +31°C° 0 mm 3 m/s 745 mmHg 65%
    21:00 +30°C° 0 mm 3 m/s 745 mmHg 65%
    22:00 +30°C° 0 mm 2 m/s 745 mmHg 65%
    23:00 +30°C° 0 mm 2 m/s 745 mmHg 65%

    Depois de amanhã, 22 Agosto, Quarta-feira

    Tempo Temperatura Precipitação Vento Pressão Humidade
    00:00 +29°C° 0 mm 2 m/s 745 mmHg 65%
    01:00 +29°C° 0 mm 2 m/s 744 mmHg 65%
    02:00 +29°C° 0 mm 2 m/s 744 mmHg 65%
    03:00 +29°C° 0 mm 2 m/s 744 mmHg 64%
    04:00 +28°C° 0 mm 1 m/s 744 mmHg 64%
    05:00 +28°C° 0 mm 1 m/s 744 mmHg 63%
    06:00 +30°C° 0 mm 1 m/s 744 mmHg 57%
    07:00 +32°C° 0 mm 1 m/s 745 mmHg 52%
    08:00 +33°C° 0 mm 1 m/s 745 mmHg 46%
    09:00 +35°C° 0 mm 2 m/s 745 mmHg 42%
    10:00 +36°C° 0 mm 3 m/s 745 mmHg 37%
    11:00 +37°C° 0 mm 3 m/s 745 mmHg 32%
    12:00 +38°C° 0 mm 4 m/s 745 mmHg 32%
    13:00 +38°C° 0 mm 4 m/s 744 mmHg 32%
    14:00 +39°C° 0 mm 5 m/s 744 mmHg 31%
    15:00 +39°C° 0 mm 5 m/s 744 mmHg 33%
    16:00 +37°C° 0 mm 4 m/s 744 mmHg 35%
    17:00 +37°C° 0 mm 4 m/s 744 mmHg 37%
    18:00 +35°C° 0 mm 4 m/s 744 mmHg 44%
    19:00 +33°C° 0 mm 3 m/s 744 mmHg 51%
    20:00 +31°C° 0 mm 3 m/s 745 mmHg 58%
    21:00 +30°C° 0 mm 3 m/s 745 mmHg 57%
    22:00 +30°C° 0 mm 3 m/s 745 mmHg 56%
    23:00 +30°C° 0 mm 3 m/s 744 mmHg 55%

    23 Agosto, Quinta-feira

    Tempo Temperatura Precipitação Vento Pressão Humidade
    00:00 +30°C° 0 mm 2 m/s 744 mmHg 54%
    01:00 +29°C° 0 mm 2 m/s 744 mmHg 53%
    02:00 +29°C° 0 mm 2 m/s 744 mmHg 53%
    03:00 +29°C° 0 mm 2 m/s 744 mmHg 51%
    04:00 +29°C° 0 mm 1 m/s 744 mmHg 49%
    05:00 +29°C° 0 mm 1 m/s 743 mmHg 47%
    06:00 +30°C° 0 mm 1 m/s 744 mmHg 43%
    07:00 +32°C° 0 mm 1 m/s 744 mmHg 38%
    08:00 +34°C° 0 mm 1 m/s 744 mmHg 34%
    09:00 +36°C° 0 mm 2 m/s 744 mmHg 33%
    10:00 +37°C° 0 mm 2 m/s 744 mmHg 32%
    11:00 +38°C° 0 mm 3 m/s 744 mmHg 31%
    12:00 +38°C° 0 mm 3 m/s 744 mmHg 31%
    13:00 +38°C° 0 mm 4 m/s 743 mmHg 32%
    14:00 +38°C° 0 mm 4 m/s 743 mmHg 33%
    15:00 +38°C° 0 mm 4 m/s 743 mmHg 35%
    16:00 +37°C° 0 mm 4 m/s 743 mmHg 38%
    17:00 +36°C° 0 mm 4 m/s 743 mmHg 40%
    18:00 +35°C° 0 mm 3 m/s 743 mmHg 48%
    19:00 +33°C° 0 mm 3 m/s 744 mmHg 55%
    20:00 +30°C° 0 mm 2 m/s 744 mmHg 63%
    21:00 +30°C° 0 mm 2 m/s 744 mmHg 62%
    22:00 +30°C° 0 mm 2 m/s 744 mmHg 61%
    23:00 +29°C° 0 mm 2 m/s 744 mmHg 60%

    24 Agosto, Sexta-feira

    Tempo Temperatura Precipitação Vento Pressão Humidade
    00:00 +29°C° 0 mm 1 m/s 744 mmHg 60%
    01:00 +29°C° 0 mm 1 m/s 744 mmHg 61%
    02:00 +28°C° 0 mm 1 m/s 743 mmHg 61%
    03:00 +28°C° 0 mm 1 m/s 743 mmHg 60%
    04:00 +28°C° 0 mm 1 m/s 743 mmHg 60%
    05:00 +28°C° 0 mm 1 m/s 743 mmHg 59%
    06:00 +29°C° 0 mm 1 m/s 744 mmHg 54%
    07:00 +31°C° 0 mm 1 m/s 744 mmHg 48%
    08:00 +33°C° 0 mm 1 m/s 744 mmHg 43%
    09:00 +34°C° 0 mm 1 m/s 744 mmHg 40%
    10:00 +36°C° 0 mm 2 m/s 744 mmHg 37%
    11:00 +37°C° 0 mm 2 m/s 744 mmHg 35%
    12:00 +37°C° 0 mm 3 m/s 743 mmHg 36%
    13:00 +37°C° 0 mm 3 m/s 743 mmHg 36%
    14:00 +37°C° 0 mm 4 m/s 743 mmHg 37%
    15:00 +37°C° 0 mm 4 m/s 743 mmHg 40%
    16:00 +36°C° 0 mm 4 m/s 743 mmHg 42%
    17:00 +36°C° 0 mm 4 m/s 743 mmHg 45%
    18:00 +34°C° 0 mm 3 m/s 743 mmHg 53%
    19:00 +31°C° 0 mm 2 m/s 744 mmHg 60%
    20:00 +30°C° 0 mm 2 m/s 744 mmHg 68%
    21:00 +30°C° 0 mm 2 m/s 744 mmHg 68%
    22:00 +29°C° 0 mm 1 m/s 744 mmHg 68%
    23:00 +29°C° 0 mm 1 m/s 744 mmHg 68%

    25 Agosto, Sábado

    Tempo Temperatura Precipitação Vento Pressão Humidade
    00:00 +29°C° 0 mm 1 m/s 743 mmHg 68%
    01:00 +28°C° 0 mm 1 m/s 743 mmHg 69%
    02:00 +28°C° 0 mm 1 m/s 743 mmHg 69%
    03:00 +28°C° 0 mm 1 m/s 743 mmHg 69%
    04:00 +28°C° 0 mm 1 m/s 743 mmHg 69%
    05:00 +27°C° 0 mm 1 m/s 743 mmHg 69%
    06:00 +29°C° 0 mm 1 m/s 743 mmHg 64%
    07:00 +31°C° 0 mm 1 m/s 743 mmHg 58%
    08:00 +32°C° 0 mm 1 m/s 743 mmHg 53%
    09:00 +33°C° 0 mm 1 m/s 743 mmHg 49%
    10:00 +35°C° 0 mm 2 m/s 743 mmHg 46%
    11:00 +36°C° 0 mm 2 m/s 743 mmHg 43%
    12:00 +37°C° 0 mm 3 m/s 743 mmHg 43%
    13:00 +37°C° 0 mm 3 m/s 743 mmHg 42%
    14:00 +37°C° 0 mm 4 m/s 743 mmHg 42%
    15:00 +37°C° 0 mm 4 m/s 742 mmHg 45%
    16:00 +36°C° 0 mm 4 m/s 742 mmHg 47%
    17:00 +36°C° 0 mm 4 m/s 742 mmHg 49%
    18:00 +34°C° 0 mm 3 m/s 742 mmHg 57%
    19:00 +33°C° 0 mm 3 m/s 743 mmHg 65%
    20:00 +30°C° 0 mm 2 m/s 743 mmHg 73%
    21:00 +30°C° 0 mm 2 m/s 743 mmHg 73%
    22:00 +30°C° 0 mm 2 m/s 743 mmHg 73%
    23:00 +29°C° 0 mm 2 m/s 743 mmHg 73%
    Mostrar mais